Find Starlink 36133

NORAD ID: 66963 Int'l Des: 2025-288 Owner: SPXS Country: US Constellation: starlink operational
LEOCIRCULAR

当前视图

正在加载3D地球...

关于 Starlink 36133

正在加载描述...

即将过境

Passes for default location (London). Set your location on the main map for personalized predictions.

高度历史

Loading altitude history...

两行轨道根数

1 66963U 25288E 26146.41654958 .00024334 00000-0 89052-3 0 9999
2 66963 43.0006 304.5871 0000854 274.4286 85.6468 15.27593448 27175
Epoch: May 26, 2026 • Age: 9 hours

当前状态

高度 487.0 km
速度 7.62 km/s
星下点 -20.03°S, 105.93°E
发射日期 Dec 8, 2025
运行时间 0.4 years
类型 internet

技术详情

分类 Payload
质量 575.00 kg
干质量 530.00 kg
总质量 575.00 kg
长度 0.30 m
直径 4.10 m
跨度 29.00 m
形状 Box + pan
制造商 SPXS
平台类型 Starlink V2MO
阶段状态 In Orbit
所有者/国家 SPXS/US

Most Searched